[TLELIST] Archives

 

[list_settings.list_name] Current TLEs

January 6th 2023 PST

HST 1 20580U 90037B 23005.80050764 .00003795 00000-0 20751-3 0 9996 2 20580 28.4698 267.1592 0002651 62.3476 345.3789 15.11553777596852 ISS (ZARYA) 1 25544U 98067A 23006.43310466 .00014748 00000-0 26612-3 0 9992 2 25544 51.6444 49.7668 0004871 234.5355 259.7497 15.49970496376703 CXO 1 25867U 99040B 22350.50688168 .00000592 00000-0 00000-0 0 9990 2 25867 40.5464 218.6105 8981371 245.2549 0.0091 0.37815769 12485 ____________________________________________________________________ These 2-Line ...Continue Reading

[list_settings.list_name] Current TLEs

January 5th 2023 PST

HST 1 20580U 90037B 23004.16232265 .00003743 00000-0 20456-3 0 9997 2 20580 28.4701 278.0302 0002609 46.0837 69.6387 15.11542356596604 ISS (ZARYA) 1 25544U 98067A 23005.39537492 .00013843 00000-0 25062-3 0 9999 2 25544 51.6447 54.9065 0004934 229.3624 230.7268 15.49935378376543 CXO 1 25867U 99040B 22350.50688168 .00000592 00000-0 00000-0 0 9990 2 25867 40.5464 218.6105 8981371 245.2549 0.0091 0.37815769 12485 ____________________________________________________________________ These 2-Line ...Continue Reading

[list_settings.list_name] Current TLEs

January 4th 2023 PST

HST 1 20580U 90037B 23004.16232265 .00003743 00000-0 20456-3 0 9997 2 20580 28.4701 278.0302 0002609 46.0837 69.6387 15.11542356596862 ISS (ZARYA) 1 25544U 98067A 23004.36430639 .00014832 00000-0 26815-3 0 9996 2 25544 51.6446 60.0141 0004980 225.5107 237.7172 15.49909310376380 CXO 1 25867U 99040B 22350.50688168 .00000592 00000-0 00000-0 0 9990 2 25867 40.5464 218.6105 8981371 245.2549 0.0091 0.37815769 12485 ____________________________________________________________________ These 2-Line ...Continue Reading

[list_settings.list_name] Current TLEs

January 3rd 2023 PST

HST 1 20580U 90037B 23002.82824913 .00003375 00000-0 18351-3 0 9997 2 20580 28.4705 286.8826 0002571 32.5185 9.3818 15.11532337596406 ISS (ZARYA) 1 25544U 98067A 23003.46602144 .00016833 00000-0 30337-3 0 9995 2 25544 51.6453 64.4633 0004820 220.4826 267.3680 15.49890638376247 CXO 1 25867U 99040B 22350.50688168 .00000592 00000-0 00000-0 0 9990 2 25867 40.5464 218.6105 8981371 245.2549 0.0091 0.37815769 12485 ____________________________________________________________________ These 2-Line ...Continue Reading

[list_settings.list_name] Current TLEs

January 2nd 2023 PST

HST 1 20580U 90037B 23001.52993140 .00003842 00000-0 21037-3 0 9996 2 20580 28.4707 295.4975 0002520 18.6203 144.4528 15.11524158596208 ISS (ZARYA) 1 25544U 98067A 23002.42722733 .00017455 00000-0 31461-3 0 9997 2 25544 51.6446 69.6092 0005127 215.2634 232.7755 15.49857705376084 CXO 1 25867U 99040B 22350.50688168 .00000592 00000-0 00000-0 0 9990 2 25867 40.5464 218.6105 8981371 245.2549 0.0091 0.37815769 12485 ____________________________________________________________________ These 2-Line ...Continue Reading

[list_settings.list_name] Current TLEs

January 1st 2023 PST

HST 1 20580U 90037B 23001.25924215 .00003917 00000-0 21470-3 0 9997 2 20580 28.4707 297.2939 0002521 15.9406 111.2561 15.11522309596423 ISS (ZARYA) 1 25544U 98067A 23001.26991367 .00015968 00000-0 28903-3 0 9993 2 25544 51.6448 75.3411 0005204 209.5406 257.0907 15.49811030375904 CXO 1 25867U 99040B 22350.50688168 .00000592 00000-0 00000-0 0 9990 2 25867 40.5464 218.6105 8981371 245.2549 0.0091 0.37815769 12485 ____________________________________________________________________ These 2-Line ...Continue Reading

[list_settings.list_name] Current TLEs

December 31st 2022 PST

HST 1 20580U 90037B 22365.19825428 .00003689 00000-0 20165-3 0 9994 2 20580 28.4708 304.3343 0002477 4.5335 97.8698 15.11514291596261 ISS (ZARYA) 1 25544U 98067A 22365.36396365 .00015586 00000-0 28262-3 0 9997 2 25544 51.6438 79.8286 0005443 207.3405 241.4022 15.49778227375761 CXO 1 25867U 99040B 22350.50688168 .00000592 00000-0 00000-0 0 9990 2 25867 40.5464 218.6105 8981371 245.2549 0.0091 0.37815769 12485 ____________________________________________________________________ These 2-Line ...Continue Reading

[list_settings.list_name] Current TLEs

December 30th 2022 PST

HST 1 20580U 90037B 22364.19266773 .00003636 00000-0 19862-3 0 9999 2 20580 28.4710 311.0065 0002407 352.1186 27.5833 15.11507461596115 ISS (ZARYA) 1 25544U 98067A 22364.38959689 .00016555 00000-0 29996-3 0 9994 2 25544 51.6445 84.6541 0005332 202.3623 206.6636 15.49750580375611 CXO 1 25867U 99040B 22350.50688168 .00000592 00000-0 00000-0 0 9990 2 25867 40.5464 218.6105 8981371 245.2549 0.0091 0.37815769 12485 ____________________________________________________________________ These 2-Line ...Continue Reading

[list_settings.list_name] Current TLEs

December 29th 2022 PST

HST 1 20580U 90037B 22362.30129903 .00003178 00000-0 17232-3 0 9993 2 20580 28.4713 323.5564 0002349 331.3535 176.2154 15.11494093595564 ISS (ZARYA) 1 25544U 98067A 22363.36884225 .00018590 00000-0 33607-3 0 9999 2 25544 51.6442 89.7100 0005465 200.7957 269.6507 15.49722637375454 CXO 1 25867U 99040B 22350.50688168 .00000592 00000-0 00000-0 0 9990 2 25867 40.5464 218.6105 8981371 245.2549 0.0091 0.37815769 12485 ____________________________________________________________________ These 2-Line ...Continue Reading

[list_settings.list_name] Current TLEs

December 28th 2022 PST

HST 1 20580U 90037B 22361.37370101 .00003252 00000-0 17665-3 0 9990 2 20580 28.4713 329.7112 0002288 320.8364 169.3063 15.11488474595429 ISS (ZARYA) 1 25544U 98067A 22362.46476088 .00016235 00000-0 29500-3 0 9994 2 25544 51.6437 94.1833 0005552 199.1156 264.1833 15.49683558375315 CXO 1 25867U 99040B 22350.50688168 .00000592 00000-0 00000-0 0 9990 2 25867 40.5464 218.6105 8981371 245.2549 0.0091 0.37815769 12485 ____________________________________________________________________ These 2-Line ...Continue Reading
  • This mailing list is a public mailing list - anyone may join or leave, at any time.
  • This mailing list is announce-only.

International Space Station (ISS) / Hubble Space Telescope (HST) / Chandra X-Ray Observatory Orbital Data via EMAIL

Privacy Policy:

Private list